Showing default

FLOCK 4BE 25, 60487

Orbit data source: Space-Track

FLOCK 4BE 25, 60487 is a payload satellite owned by Planet (US) in SSO that was launched on Fri, 16 Aug 2024 UTC via an FALCON 9 launch vehicle from the Air Force Western Test Range (AFWTR). Payload-class satellites include a variety of spacecraft equipped with specific instruments for various scientific and technological missions. These include communications satellites like Starlink; space stations such as the ISS; scientific satellites like the Hubble; Earth observation satellites from companies like Planet Labs, Umbra, and HawkEye 360; GPS; miniature CubeSats for education and research; and military/defense satellites.

Loading next visibility...
Identifier
60487, 2024-149V
Orbit
SSO
Country
Flag of USUS
Related business
Manufacturer
Planet
Mission
Operational Commercial Imaging
Bus & Motor
CUBESAT 3U, Unknown motor
Mass
5.7 kg wet, 5.7 kg dry
Launch date (UTC)
2024-08-16 (1 year ago)
Launch vehicle
FALCON 9
Launch site
Air Force Western Test Range (AFWTR)
Object type
Payload
Rocket body
Debris
Shape & HBR
Box + 2 Pan, 1.0 m
Radar Cross Section
0.072 m², Medium (>0.1 m² and < 1m²)

Expand to show TLE details & history
Last TLE update: 22 hours ago

TLE from 22 hours ago
0 FLOCK 4BE 25
1 60487U 24149V   25338.68081443  .00030673  00000-0  97598-3 0  9990
2 60487  97.3993  56.2127 0002185 207.4744 152.6383 15.32534822 72387
Epoch: 2025-12-04T16:20Z
TLE epoch observation values (Epoch: 2025-12-04T16:20:22.366Z)
Latitude
-0.00002°
Longitude
97.38574°
Altitude
472.689 km
Speed
7.629 km/s
True Right ascension
03h 44m 51s
True Declination
0° 00' 00"
Sunlit
Object was in full shadow at epoch
Visualization orbit readout
Latitude
Unknown
Longitude
Unknown
Altitude
Unknown
Speed
Unknown
Apparent Right ascension
Unknown
Apparent Declination
Unknown
Sunlit
N/A
Visualization observer readout
Local Sidereal Time
12:25:34
Azimuth
Unknown
Elevation
Unknown
Doppler factor
Unknown
Orbital elements
Apogee altitude
466.697 km
Perigee altitude
463.706 km
Semi-major axis
6,843.338 km
Eccentricity
0.00022
Inclination
97.3993°
RAAN
56.2127°
Arg. of periapsis
207.4744°
True anomaly
152.6498°
Mean anomaly
152.6383°
Eccentric anomaly
152.64405°
Mean motion
3.8339 °/min
Orbital period
93.9 mins
BSTAR
0.00097598
Loading maneuver chart data...
Computing Atmospheric mass density...
Loading historical data...
Loading historical data...
Loading historical data...
Loading historical data...
Loading historical data...
Loading historical data...
Loading historical data...

Documentation

Showing up to 5 results
|